| time (UTC) | temp F | wind direction | speed knots | gust knots | rain 1hr in | rain 24hr in | rain mn in | humidity % | barometer mb |
| 20260901050711 | 76 | 119 | 0.9 | 5.2 | 0.00 | 0.00 | 0.00 | 86 | 1011.5 |
| 20260901045710 | 76 | 9 | 0.9 | 2.6 | 0.00 | 0.00 | 0.00 | 85 | 1011.6 |
| 20260901044711 | 77 | 327 | 0.0 | 0.0 | 0.00 | 0.00 | 0.00 | 84 | 1011.6 |
| 20260901043711 | 77 | 327 | 0.0 | 0.0 | 0.00 | 0.00 | 0.00 | 84 | 1011.6 |
| 20260901041710 | 77 | 326 | 0.0 | 0.0 | 0.00 | 0.00 | 0.00 | 82 | 1011.5 |
| 20260901040710 | 78 | 105 | 0.0 | 0.0 | 0.00 | 0.00 | 0.00 | 82 | 1011.5 |
| 20260901034710 | 78 | 105 | 0.0 | 0.0 | 0.00 | 0.00 | 0.00 | 81 | 1011.4 |
| 20260901033711 | 78 | 105 | 0.0 | 0.0 | 0.00 | 0.00 | 0.00 | 80 | 1011.4 |
| 20260901032710 | 79 | 105 | 0.0 | 1.7 | 0.00 | 0.00 | 0.00 | 80 | 1011.2 |
| 20260901031710 | 79 | 105 | 0.9 | 0.9 | 0.00 | 0.00 | 0.00 | 80 | 1011.3 |
| 20260901025711 | 79 | 105 | 0.0 | 2.6 | 0.00 | 0.00 | 0.00 | 79 | 1011.1 |
| 20260901021710 | 81 | 57 | 0.9 | 1.7 | 0.00 | 0.00 | 0.00 | 73 | 1010.6 |
| 20260901015711 | 83 | 57 | 0.0 | 0.9 | 0.00 | 0.00 | 0.00 | 69 | 1010.4 |
| 20260901014710 | 83 | 57 | 0.0 | 1.7 | 0.00 | 0.00 | 0.00 | 68 | 1010.2 |
| 20260901013711 | 84 | 171 | 0.0 | 0.9 | 0.00 | 0.00 | 0.00 | 67 | 1010.3 |
| 20260901012710 | 85 | 171 | 0.0 | 0.0 | 0.00 | 0.00 | 0.00 | 66 | 1010.2 |
| 20260901011710 | 85 | 171 | 0.0 | 1.7 | 0.00 | 0.00 | 0.00 | 65 | 1010.1 |
| 20260901010710 | 87 | 171 | 0.9 | 1.7 | 0.00 | 0.00 | 0.00 | 63 | 1010.3 |
| 20260901005710 | 87 | 171 | 0.9 | 2.6 | 0.00 | 0.00 | 0.00 | 61 | 1010.2 |
| 20260901003711 | 89 | 170 | 0.0 | 0.0 | 0.00 | 0.00 | 0.00 | 59 | 1010.2 |
| 20260901001711 | 89 | 170 | 0.9 | 1.7 | 0.00 | 0.00 | 0.00 | 57 | 1010.4 |
| 20260901000711 | 89 | 197 | 0.9 | 2.6 | 0.00 | 0.00 | 0.00 | 59 | 1010.3 |
| 20260831235710 | 89 | 218 | 0.9 | 1.7 | 0.00 | 0.00 | 0.00 | 58 | 1010.4 |
| 20260831234710 | 89 | 247 | 1.7 | 2.6 | 0.00 | 0.00 | 0.00 | 57 | 1010.5 |
| 20260831233710 | 89 | 232 | 0.9 | 2.6 | 0.00 | 0.00 | 0.00 | 56 | 1010.5 |
| 20260831232711 | 90 | 196 | 0.9 | 2.6 | 0.00 | 0.00 | 0.00 | 55 | 1010.5 |
| 20260831231711 | 90 | 219 | 0.9 | 2.6 | 0.00 | 0.00 | 0.00 | 56 | 1010.5 |
| 20260831225711 | 90 | 261 | 2.6 | 4.3 | 0.00 | 0.00 | 0.00 | 56 | 1010.6 |
| 20260831224710 | 90 | 229 | 2.6 | 4.3 | 0.00 | 0.00 | 0.00 | 55 | 1010.7 |
| 20260831223711 | 91 | 201 | 2.6 | 4.3 | 0.00 | 0.00 | 0.00 | 55 | 1010.8 |
| 20260831222710 | 91 | 185 | 1.7 | 4.3 | 0.00 | 0.00 | 0.00 | 55 | 1010.7 |
| 20260831220711 | 91 | 201 | 1.7 | 5.2 | 0.00 | 0.00 | 0.00 | 55 | 1010.9 |
| 20260831215710 | 90 | 248 | 1.7 | 2.6 | 0.00 | 0.00 | 0.00 | 55 | 1010.7 |
| 20260831214711 | 90 | 144 | 1.7 | 7.0 | 0.00 | 0.00 | 0.00 | 58 | 1010.9 |
| 20260831213711 | 90 | 136 | 1.7 | 6.1 | 0.00 | 0.00 | 0.00 | 57 | 1011.0 |
| 20260831212710 | 90 | 196 | 4.3 | 7.0 | 0.00 | 0.00 | 0.00 | 56 | 1011.0 |
| 20260831211711 | 90 | 154 | 2.6 | 5.2 | 0.00 | 0.00 | 0.00 | 56 | 1010.9 |
| 20260831210710 | 90 | 290 | 1.7 | 5.2 | 0.00 | 0.00 | 0.00 | 56 | 1010.9 |
| 20260831205711 | 89 | 200 | 0.0 | 6.1 | 0.00 | 0.00 | 0.00 | 57 | 1011.0 |
| 20260831204711 | 89 | 156 | 1.7 | 6.1 | 0.00 | 0.00 | 0.00 | 59 | 1011.2 |
| 20260831203710 | 89 | 204 | 1.7 | 7.0 | 0.00 | 0.00 | 0.00 | 60 | 1011.3 |
| 20260831202711 | 88 | 196 | 2.6 | 7.0 | 0.00 | 0.00 | 0.00 | 63 | 1011.3 |
| 20260831201710 | 88 | 49 | 1.7 | 7.0 | 0.00 | 0.00 | 0.00 | 64 | 1011.3 |
| 20260831200711 | 88 | 160 | 2.6 | 7.0 | 0.00 | 0.00 | 0.00 | 65 | 1011.4 |
| 20260831195710 | 88 | 116 | 1.7 | 4.3 | 0.00 | 0.00 | 0.00 | 64 | 1011.3 |
| 20260831194711 | 87 | 155 | 0.9 | 2.6 | 0.00 | 0.00 | 0.00 | 64 | 1011.3 |
| 20260831193711 | 86 | 260 | 0.9 | 5.2 | 0.00 | 0.00 | 0.00 | 67 | 1011.5 |
| 20260831192711 | 86 | 144 | 1.7 | 5.2 | 0.00 | 0.00 | 0.00 | 65 | 1011.4 |
| 20260831191710 | 85 | 167 | 2.6 | 4.3 | 0.00 | 0.00 | 0.00 | 68 | 1011.5 |
| 20260831190710 | 85 | 268 | 2.6 | 6.1 | 0.00 | 0.00 | 0.00 | 69 | 1011.6 |
| 20260831185710 | 85 | 300 | 2.6 | 5.2 | 0.00 | 0.00 | 0.00 | 69 | 1011.8 |
| 20260831184711 | 85 | 11 | 2.6 | 6.1 | 0.00 | 0.00 | 0.00 | 72 | 1011.8 |
| 20260831183710 | 84 | 222 | 0.9 | 7.0 | 0.00 | 0.00 | 0.00 | 70 | 1011.6 |
| 20260831181711 | 84 | 52 | 1.7 | 4.3 | 0.00 | 0.00 | 0.00 | 71 | 1011.8 |
| 20260831180710 | 83 | 323 | 0.0 | 5.2 | 0.00 | 0.00 | 0.00 | 71 | 1011.8 |
| 20260831175711 | 83 | 287 | 1.7 | 7.0 | 0.00 | 0.00 | 0.00 | 74 | 1011.9 |
| 20260831174711 | 82 | 65 | 2.6 | 7.0 | 0.00 | 0.00 | 0.00 | 72 | 1011.7 |
| 20260831173711 | 82 | 30 | 2.6 | 4.3 | 0.00 | 0.00 | 0.00 | 74 | 1011.8 |
| 20260831172710 | 81 | 310 | 0.0 | 6.1 | 0.00 | 0.00 | 0.00 | 73 | 1011.7 |
| 20260831171710 | 81 | 305 | 2.6 | 2.6 | 0.00 | 0.00 | 0.00 | 73 | 1011.8 |
| 20260831170711 | 80 | 9 | 3.5 | 6.1 | 0.00 | 0.00 | 0.00 | 76 | 1011.7 |
| 20260831165710 | 79 | 329 | 2.6 | 7.8 | 0.00 | 0.00 | 0.00 | 75 | 1011.4 |
| 20260831164710 | 79 | 288 | 2.6 | 7.8 | 0.00 | 0.00 | 0.00 | 77 | 1011.5 |
| 20260831163711 | 79 | 300 | 2.6 | 8.7 | 0.00 | 0.00 | 0.00 | 77 | 1011.5 |
| 20260831162711 | 78 | 5 | 2.6 | 8.7 | 0.00 | 0.00 | 0.00 | 78 | 1011.6 |
| 20260831161710 | 78 | 315 | 4.3 | 8.7 | 0.00 | 0.00 | 0.00 | 77 | 1011.4 |
| 20260831160711 | 77 | 311 | 7.8 | 11.3 | 0.00 | 0.00 | 0.00 | 78 | 1011.6 |
| 20260831155710 | 76 | 324 | 7.8 | 10.4 | 0.00 | 0.00 | 0.00 | 79 | 1011.3 |
| 20260831154710 | 76 | 329 | 5.2 | 8.7 | 0.00 | 0.00 | 0.00 | 80 | 1011.4 |
| 20260831153710 | 74 | 303 | 4.3 | 10.4 | 0.00 | 0.00 | 0.00 | 80 | 1011.4 |
| 20260831152711 | 74 | 300 | 4.3 | 10.4 | 0.00 | 0.00 | 0.00 | 82 | 1011.0 |
| 20260831151711 | 73 | 296 | 7.0 | 11.3 | 0.00 | 0.00 | 0.00 | 83 | 1011.3 |
| 20260831150710 | 73 | 315 | 6.1 | 11.3 | 0.00 | 0.00 | 0.00 | 83 | 1011.1 |
| 20260831145711 | 73 | 316 | 4.3 | 8.7 | 0.00 | 0.00 | 0.00 | 83 | 1010.9 |
| 20260831143710 | 72 | 315 | 7.8 | 11.3 | 0.00 | 0.00 | 0.00 | 85 | 1011.3 |
| 20260831142711 | 72 | 319 | 6.1 | 11.3 | 0.00 | 0.00 | 0.00 | 86 | 1010.7 |
| 20260831141711 | 71 | 332 | 5.2 | 13.0 | 0.00 | 0.00 | 0.00 | 86 | 1010.6 |
| 20260831135711 | 70 | 305 | 6.1 | 11.3 | 0.00 | 0.00 | 0.00 | 88 | 1010.4 |
| 20260831134711 | 70 | 0 | 6.1 | 11.3 | 0.00 | 0.00 | 0.00 | 88 | 1009.9 |
| 20260831133711 | 69 | 331 | 5.2 | 11.3 | 0.00 | 0.00 | 0.00 | 87 | 1010.0 |
| 20260831132710 | 69 | 12 | 6.1 | 10.4 | 0.00 | 0.00 | 0.00 | 87 | 1010.7 |
| 20260831131710 | 69 | 308 | 1.7 | 7.8 | 0.00 | 0.00 | 0.00 | 86 | 1010.8 |
| 20260831130710 | 69 | 324 | 4.3 | 7.8 | 0.00 | 0.00 | 0.00 | 86 | 1010.7 |
| 20260831125711 | 69 | 284 | 4.3 | 8.7 | 0.00 | 0.00 | 0.00 | 85 | 1011.6 |
| 20260831123711 | 69 | 219 | 8.7 | 15.6 | 0.00 | 0.00 | 0.00 | 86 | 1012.3 |
| 20260831122711 | 69 | 245 | 10.4 | 14.8 | 0.00 | 0.00 | 0.00 | 86 | 1011.9 |
| 20260831121711 | 69 | 244 | 6.1 | 10.4 | 0.00 | 0.00 | 0.00 | 86 | 1011.1 |
| 20260831120710 | 69 | 252 | 4.3 | 7.8 | 0.00 | 0.00 | 0.00 | 86 | 1010.5 |
| 20260831115710 | 70 | 286 | 4.3 | 11.3 | 0.00 | 0.00 | 0.00 | 86 | 1010.2 |
| 20260831114711 | 71 | 284 | 4.3 | 8.7 | 0.00 | 0.00 | 0.00 | 87 | 1009.9 |
| 20260831113710 | 71 | 261 | 2.6 | 8.7 | 0.00 | 0.00 | 0.00 | 87 | 1009.4 |
| 20260831111711 | 72 | 282 | 7.8 | 12.2 | 0.00 | 0.00 | 0.00 | 87 | 1009.1 |
| 20260831110710 | 73 | 285 | 6.1 | 10.4 | 0.00 | 0.00 | 0.00 | 89 | 1008.9 |
| 20260831105711 | 73 | 286 | 2.6 | 6.1 | 0.00 | 0.00 | 0.00 | 90 | 1008.8 |
| 20260831104711 | 73 | 260 | 1.7 | 5.2 | 0.00 | 0.00 | 0.00 | 90 | 1008.6 |
| 20260831103710 | 73 | 255 | 2.6 | 7.8 | 0.00 | 0.00 | 0.00 | 90 | 1008.2 |
| 20260831100711 | 72 | 253 | 2.6 | 5.2 | 0.00 | 0.00 | 0.00 | 92 | 1007.8 |
| 20260831095710 | 72 | 270 | 1.7 | 2.6 | 0.00 | 0.00 | 0.00 | 92 | 1007.9 |
| 20260831094711 | 72 | 299 | 0.9 | 1.7 | 0.00 | 0.00 | 0.00 | 92 | 1007.8 |
| 20260831091711 | 71 | 266 | 1.7 | 2.6 | 0.00 | 0.00 | 0.00 | 91 | 1007.6 |
| 20260831090710 | 71 | 261 | 0.9 | 2.6 | 0.00 | 0.00 | 0.00 | 91 | 1007.5 |
| 20260831085711 | 71 | 298 | 0.9 | 2.6 | 0.00 | 0.00 | 0.00 | 91 | 1007.3 |
| 20260831084711 | 72 | 304 | 0.0 | 1.7 | 0.00 | 0.00 | 0.00 | 91 | 1007.2 |
| 20260831083710 | 72 | 278 | 0.0 | 1.7 | 0.00 | 0.00 | 0.00 | 91 | 1007.1 |
| 20260831082711 | 72 | 295 | 0.9 | 2.6 | 0.00 | 0.00 | 0.00 | 91 | 1007.4 |
| 20260831081711 | 72 | 311 | 1.7 | 4.3 | 0.00 | 0.00 | 0.00 | 90 | 1007.2 |
| 20260831080711 | 72 | 307 | 0.9 | 2.6 | 0.00 | 0.00 | 0.00 | 90 | 1007.1 |
| 20260831075710 | 72 | 331 | 0.0 | 0.0 | 0.00 | 0.00 | 0.00 | 90 | 1007.1 |
| 20260831074710 | 73 | 331 | 0.0 | 0.0 | 0.00 | 0.00 | 0.00 | 90 | 1007.1 |
| 20260831072711 | 73 | 182 | 0.0 | 1.7 | 0.00 | 0.00 | 0.00 | 90 | 1007.2 |
| 20260831071711 | 73 | 182 | 0.9 | 2.6 | 0.00 | 0.00 | 0.00 | 90 | 1007.2 |
| 20260831065711 | 73 | 177 | 0.9 | 2.6 | 0.00 | 0.00 | 0.00 | 90 | 1007.2 |
| 20260831064710 | 73 | 194 | 0.0 | 1.7 | 0.00 | 0.00 | 0.00 | 91 | 1007.2 |
| 20260831063710 | 74 | 194 | 0.9 | 1.7 | 0.00 | 0.00 | 0.00 | 91 | 1007.3 |
| 20260831062711 | 74 | 183 | 0.9 | 4.3 | 0.00 | 0.00 | 0.00 | 91 | 1007.0 |
| 20260831061710 | 74 | 172 | 2.6 | 4.3 | 0.00 | 0.00 | 0.00 | 91 | 1007.1 |
| 20260831060710 | 74 | 169 | 0.0 | 1.7 | 0.00 | 0.00 | 0.00 | 91 | 1006.9 |
| 20260831055711 | 74 | 169 | 0.9 | 1.7 | 0.00 | 0.00 | 0.00 | 91 | 1007.0 |
| 20260831054711 | 74 | 169 | 0.0 | 1.7 | 0.00 | 0.00 | 0.00 | 91 | 1006.7 |
| 20260831053711 | 74 | 169 | 0.0 | 0.9 | 0.00 | 0.00 | 0.00 | 90 | 1006.6 |
| 20260831052710 | 74 | 168 | 0.0 | 0.9 | 0.00 | 0.00 | 0.00 | 90 | 1006.5 |